FW6463 Weather Reports


time (UTC)temp
F
wind
direction
speed
knots
gust
knots
rain 1hr
in
rain 24hr
in
rain mn
in
humidity
%
barometer
mb
20260505051052 66 235 2.6 5.2 0.00 0.00 0.00 66 1012.5
20260505041023 67 179 4.3 7.0 0.00 0.00 0.00 65 1012.2
20260505040028 66 185 4.3 8.7 0.00 0.00 0.00 67 1012.2
20260505035032 66 195 4.3 7.0 0.00 0.00 0.00 67 1012.2
20260505034019 66 187 4.3 7.0 0.00 0.00 0.00 67 1012.1
20260505033024 66 220 2.6 5.2 0.00 0.00 0.00 66 1012.2
20260505032029 66 194 3.5 7.0 0.00 0.00 0.00 66 1012.3
20260505031016 66 207 2.6 4.3 0.00 0.00 0.00 66 1012.4
20260505030020 66 224 2.6 5.2 0.00 0.00 0.00 66 1012.1
20260505025025 66 230 3.5 6.1 0.00 0.00 0.00 66 1012.2
20260505024050 66 191 1.7 3.5 0.00 0.00 0.00 65 1012.2
20260505023016 66 202 1.7 4.3 0.00 0.00 0.00 64 1012.1
20260505022021 67 210 3.5 4.3 0.00 0.00 0.00 64 1011.9
20260505021026 67 208 3.5 5.2 0.00 0.00 0.00 64 1011.8
20260505020032 67 166 4.3 6.1 0.00 0.00 0.00 63 1012.1
20260505015017 67 209 3.5 5.2 0.00 0.00 0.00 62 1012.1
20260505014023 68 212 3.5 6.1 0.00 0.00 0.00 59 1012.0
20260505013028 69 179 7.0 9.6 0.00 0.00 0.00 57 1011.8
20260505012026 69 186 6.1 8.7 0.00 0.00 0.00 56 1011.8
20260505011018 69 190 5.2 7.8 0.00 0.00 0.00 55 1011.5
20260505010023 0 0.0 0.0 0.00 0.00 0.00 1011.4
20260505005042 69 187 4.3 7.8 0.00 0.00 0.00 55 1011.3
20260505004041 69 185 4.3 7.8 0.00 0.00 0.00 55 1011.3
20260505003020 69 187 6.1 13.0 0.00 0.00 0.00 54 1011.1
20260505002018 69 196 5.2 9.6 0.00 0.00 0.00 54 1011.1
20260505001017 70 189 6.1 8.7 0.00 0.00 0.00 53 1010.9
20260505000016 70 171 7.8 10.4 0.00 0.00 0.00 52 1010.9
20260504235022 71 181 6.1 8.7 0.00 0.00 0.00 52 1011.0
20260504234026 71 193 4.3 6.1 0.00 0.00 0.00 52 1011.0
20260504233030 71 191 4.3 7.0 0.00 0.00 0.00 51 1010.9
20260504232017 73 177 5.2 9.6 0.00 0.00 0.00 50 1011.0
20260504231022 74 209 5.2 8.7 0.00 0.00 0.00 49 1010.8
20260504230027 74 174 5.2 8.7 0.00 0.00 0.00 48 1011.0
20260504225033 75 183 4.3 7.0 0.00 0.00 0.00 47 1011.1
20260504224019 75 194 6.1 7.8 0.00 0.00 0.00 47 1011.1
20260504223043 76 191 4.3 7.8 0.00 0.00 0.00 46 1011.2
20260504222029 76 176 6.1 8.7 0.00 0.00 0.00 47 1011.2
20260504221032 77 185 6.1 11.3 0.00 0.00 0.00 46 1011.2
20260504220020 76 203 3.5 7.0 0.00 0.00 0.00 47 1011.2
20260504215025 77 189 7.0 12.2 0.00 0.00 0.00 47 1011.2
20260504214029 76 176 6.1 10.4 0.00 0.00 0.00 47 1011.2
20260504213015 76 185 5.2 7.8 0.00 0.00 0.00 47 1011.2
20260504212021 76 206 6.1 7.8 0.00 0.00 0.00 47 1011.2
20260504211025 75 194 7.8 10.4 0.00 0.00 0.00 48 1011.2
20260504210030 75 179 7.8 11.3 0.00 0.00 0.00 48 1011.3
20260504205017 75 163 6.1 10.4 0.00 0.00 0.00 48 1011.3
20260504204021 75 237 7.0 13.0 0.00 0.00 0.00 48 1011.3
20260504203027 76 198 6.1 9.6 0.00 0.00 0.00 48 1011.4
20260504202031 76 191 6.1 7.8 0.00 0.00 0.00 47 1011.5
20260504201018 75 209 7.0 11.3 0.00 0.00 0.00 47 1011.7
20260504200023 76 191 5.2 8.7 0.00 0.00 0.00 48 1011.8
20260504195028 75 172 7.8 13.0 0.00 0.00 0.00 48 1012.0
20260504194032 75 210 6.1 9.6 0.00 0.00 0.00 48 1012.2
20260504193039 75 193 5.2 7.0 0.00 0.00 0.00 47 1012.4
20260504192044 74 223 7.0 8.7 0.00 0.00 0.00 48 1012.5
20260504191028 75 195 6.1 7.8 0.00 0.00 0.00 49 1012.6
20260504190015 74 210 6.1 9.6 0.00 0.00 0.00 47 1012.8
20260504185040 74 188 5.2 9.6 0.00 0.00 0.00 49 1013.1
20260504184106 74 214 7.0 9.6 0.00 0.00 0.00 49 1013.3
20260504183030 74 223 7.0 13.0 0.00 0.00 0.00 49 1013.5
20260504182016 73 194 5.2 8.7 0.00 0.00 0.00 50 1013.7
20260504181021 72 197 7.8 10.4 0.00 0.00 0.00 50 1013.9
20260504180025 73 214 7.0 10.4 0.00 0.00 0.00 49 1014.0
20260504175031 73 217 6.1 9.6 0.00 0.00 0.00 50 1014.0
20260504174017 72 182 7.0 13.9 0.00 0.00 0.00 51 1014.1
20260504173022 72 251 7.8 15.6 0.00 0.00 0.00 50 1014.2
20260504172027 71 196 3.5 6.1 0.00 0.00 0.00 52 1014.5
20260504171108 71 205 5.2 10.4 0.00 0.00 0.00 52 1014.6
20260504151016 66 206 5.2 9.6 0.00 0.00 0.00 53 1016.1
20260504141028 63 223 6.1 13.9 0.00 0.00 0.00 54 1016.2
20260504130105 60 223 5.2 9.6 0.00 0.00 0.00 50 1016.4
20260504081018 47 201 1.7 2.6 0.00 0.00 0.00 64 1017.2